sat.trackr.live / text

‹ back to catalog

STARLINK-31442

NORAD 59859 · 2024-098B

PAYLOAD ACTIVE UNKNOWN

§ Identity

Operator
Country
US
Launch date
2024-05-24
Launch site
AFETR
Launch vehicle
Mass (kg)
RCS (m²)

Purposes: comms

External: N2YO · Heavens-Above · Gunter

§ Orbital elements

Epoch: 2026-05-25T05:02:24.851040Z

Period
94.27 min
Inclination
42.9986°
Eccentricity
0.0001248
Mean motion
15.27573468 rev/d
Perigee alt
482.2 km
Apogee alt
483.9 km
Semi-major
6,861.2 km
B*
-1.1957e-5
RAAN
209.7477°
Arg perigee
277.5956°
Mean anomaly
82.4754°
Rev number
11,350

§ Raw data

STARLINK-314421 59859U 24098B   26145.21000985 -.00000591  00000+0 -11957-4 0  99952 59859  42.9986 209.7477 0001248 277.5956  82.4754 15.27573468113506

JSON: /api/v1/satellites/59859 · /tle

For live sub-satellite position, see the globe view (requires WebGL).

§ Visibility from observer

Set your observer location to see the next 7 days of passes ≥ 10°. The values pass through the URL so the page stays shareable.

No JS? Fill the form by hand. The geolocation button needs JavaScript.